QPF
0.00 0.00 0.00 0.00 0.00 0.00 0.00 0.00 0.00 0.00 0.00 0.00 0.00 0.00 0.00 0.00 0.00 0.00 0.01 0.01 0.01 0.01 0.01 0.01 0.01 0.01 0.01 0.01 0.01 0.01 0.01 0.01 0.01 0.02 0.02 0.02 0.02 0.02 0.03 0.03 0.03 0.03 0.02 0.01
0.00 0.00 0.00 0.00 0.00 0.00 0.00 0.00 0.00 0.00 0.00 0.00 0.00 0.00 0.00 0.00 0.00 0.00 0.00 0.00 0.01 0.02 0.01 0.01 0.01 0.01 0.01 0.01 0.00 0.00 0.00 0.01 0.01 0.01 0.03 0.03 0.03 0.03 0.04 0.04 0.03 0.02 0.01 0.01
0.00 0.00 0.00 0.00 0.00 0.00 0.00 0.00 0.00 0.00 0.00 0.00 0.00 0.00 0.01 0.01 0.01 0.00 0.00 0.00 0.01 0.01 0.01 0.01 0.01 0.01 0.01 0.01 0.01 0.00 0.01 0.01 0.02 0.02 0.02 0.03 0.04 0.05 0.05 0.06 0.05 0.03 0.02 0.02
0.00 0.00 0.00 0.00 0.00 0.00 0.00 0.00 0.00 0.00 0.00 0.00 0.01 0.01 0.01 0.01 0.01 0.01 0.00 0.01 0.01 0.01 0.01 0.01 0.01 0.02 0.02 0.01 0.01 0.01 0.01 0.02 0.02 0.02 0.03 0.03 0.04 0.07 0.09 0.09 0.07 0.04 0.02 0.02
0.00 0.00 0.00 0.00 0.00 0.00 0.00 0.00 0.00 0.01 0.01 0.01 0.00 0.00 0.00 0.00 0.01 0.01 0.01 0.01 0.00 0.00 0.00 0.01 0.02 0.04 0.04 0.02 0.02 0.02 0.03 0.03 0.03 0.02 0.03 0.03 0.05 0.06 0.05 0.04 0.03 0.02 0.02 0.02
0.00 0.00 0.00 0.00 0.00 0.00 0.00 0.00 0.00 0.00 0.00 0.00 0.00 0.00 0.00 0.00 0.01 0.01 0.01 0.00 0.00 0.00 0.00 0.01 0.03 0.05 0.09 0.08 0.06 0.04 0.03 0.03 0.03 0.02 0.02 0.03 0.04 0.04 0.04 0.03 0.02 0.02 0.03 0.03
0.00 0.00 0.00 0.00 0.00 0.00 0.00 0.00 0.00 0.00 0.00 0.00 0.00 0.00 0.00 0.00 0.00 0.01 0.00 0.00 0.00 0.01 0.01 0.02 0.03 0.04 0.07 0.11 0.12 0.10 0.07 0.05 0.04 0.02 0.02 0.03 0.03 0.03 0.03 0.03 0.04 0.04 0.04 0.04
0.00 0.00 0.00 0.00 0.00 0.00 0.00 0.00 0.00 0.00 0.00 0.00 0.00 0.00 0.00 0.00 0.00 0.00 0.01 0.01 0.01 0.01 0.02 0.03 0.04 0.04 0.06 0.08 0.09 0.09 0.09 0.07 0.04 0.02 0.02 0.02 0.02 0.02 0.02 0.02 0.02 0.02 0.02 0.02
0.00 0.00 0.00 0.00 0.00 0.00 0.00 0.00 0.00 0.00 0.00 0.00 0.00 0.00 0.00 0.01 0.00 0.00 0.00 0.01 0.01 0.02 0.03 0.03 0.04 0.06 0.09 0.11 0.10 0.09 0.09 0.07 0.04 0.01 0.01 0.02 0.02 0.01 0.01 0.01 0.01 0.02 0.01 0.01
0.00 0.01 0.01 0.00 0.00 0.01 0.01 0.01 0.01 0.00 0.00 0.00 0.00 0.00 0.00 0.00 0.01 0.01 0.01 0.01 0.01 0.02 0.02 0.04 0.06 0.07 0.09 0.11 0.11 0.10 0.07 0.05 0.03 0.01 0.01 0.01 0.01 0.01 0.01 0.01 0.01 0.02 0.02 0.01
0.01 0.01 0.01 0.01 0.01 0.01 0.01 0.01 0.01 0.01 0.01 0.01 0.01 0.01 0.01 0.01 0.01 0.01 0.02 0.02 0.03 0.03 0.03 0.03 0.04 0.04 0.04 0.04 0.05 0.06 0.06 0.05 0.04 0.02 0.02 0.02 0.02 0.02 0.01 0.01 0.01 0.01 0.01 0.01
0.00 0.01 0.01 0.01 0.01 0.01 0.01 0.01 0.01 0.02 0.02 0.02 0.02 0.02 0.02 0.01 0.01 0.01 0.02 0.03 0.04 0.05 0.06 0.05 0.04 0.04 0.05 0.04 0.06 0.09 0.08 0.07 0.06 0.05 0.04 0.03 0.02 0.02 0.02 0.02 0.02 0.02 0.01 0.01
0.00 0.01 0.01 0.01 0.02 0.02 0.02 0.01 0.02 0.03 0.05 0.05 0.04 0.03 0.03 0.03 0.03 0.03 0.02 0.03 0.05 0.06 0.06 0.08 0.09 0.08 0.07 0.06 0.06 0.10 0.10 0.08 0.06 0.06 0.05 0.03 0.02 0.02 0.02 0.04 0.04 0.03 0.02 0.02
0.01 0.01 0.02 0.02 0.03 0.04 0.03 0.03 0.02 0.03 0.04 0.05 0.05 0.05 0.04 0.05 0.05 0.05 0.03 0.04 0.09 0.09 0.10 0.10 0.11 0.12 0.11 0.09 0.08 0.10 0.10 0.08 0.06 0.05 0.05 0.03 0.02 0.03 0.04 0.04 0.03 0.02 0.02 0.02
0.02 0.02 0.03 0.03 0.03 0.07 0.07 0.05 0.05 0.04 0.03 0.04 0.05 0.06 0.06 0.07 0.09 0.07 0.06 0.05 0.09 0.11 0.12 0.12 0.13 0.12 0.10 0.09 0.08 0.07 0.07 0.06 0.05 0.05 0.04 0.03 0.03 0.04 0.04 0.03 0.02 0.01 0.01 0.01
0.01 0.01 0.02 0.03 0.06 0.09 0.10 0.09 0.09 0.09 0.08 0.06 0.05 0.06 0.07 0.08 0.09 0.09 0.07 0.07 0.10 0.12 0.11 0.12 0.12 0.12 0.08 0.07 0.07 0.08 0.09 0.09 0.07 0.05 0.04 0.03 0.03 0.03 0.02 0.02 0.01 0.01 0.01 0.01
0.01 0.01 0.02 0.04 0.07 0.09 0.10 0.12 0.13 0.14 0.13 0.10 0.08 0.08 0.07 0.08 0.08 0.08 0.07 0.07 0.08 0.09 0.08 0.09 0.09 0.08 0.08 0.06 0.06 0.07 0.09 0.10 0.09 0.08 0.07 0.06 0.04 0.03 0.02 0.02 0.01 0.01 0.01 0.01
0.02 0.02 0.03 0.05 0.10 0.11 0.13 0.14 0.16 0.15 0.13 0.11 0.09 0.09 0.10 0.08 0.08 0.08 0.08 0.06 0.06 0.08 0.07 0.07 0.07 0.05 0.05 0.06 0.06 0.06 0.07 0.08 0.07 0.06 0.06 0.05 0.04 0.04 0.03 0.03 0.03 0.02 0.02 0.02
0.04 0.05 0.04 0.05 0.07 0.10 0.13 0.16 0.17 0.17 0.14 0.13 0.11 0.10 0.10 0.10 0.11 0.12 0.12 0.09 0.07 0.07 0.07 0.06 0.07 0.05 0.05 0.06 0.06 0.06 0.06 0.07 0.07 0.06 0.05 0.04 0.03 0.03 0.03 0.03 0.03 0.03 0.03 0.03
0.05 0.05 0.04 0.05 0.07 0.09 0.11 0.14 0.17 0.18 0.13 0.10 0.10 0.10 0.11 0.11 0.11 0.12 0.12 0.10 0.08 0.05 0.05 0.06 0.06 0.06 0.05 0.05 0.05 0.04 0.04 0.05 0.06 0.06 0.07 0.07 0.06 0.05 0.04 0.04 0.03 0.03 0.04 0.04
0.04 0.05 0.05 0.05 0.05 0.07 0.10 0.14 0.16 0.16 0.13 0.10 0.08 0.08 0.09 0.09 0.09 0.10 0.10 0.08 0.05 0.04 0.03 0.03 0.04 0.04 0.04 0.04 0.04 0.03 0.03 0.03 0.03 0.03 0.02 0.03 0.02 0.02 0.02 0.02 0.02 0.02 0.02 0.02
0.05 0.06 0.07 0.05 0.04 0.04 0.06 0.08 0.11 0.12 0.12 0.10 0.07 0.08 0.07 0.06 0.06 0.06 0.06 0.05 0.05 0.03 0.03 0.03 0.02 0.02 0.02 0.03 0.03 0.03 0.02 0.02 0.02 0.02 0.01 0.01 0.01 0.01 0.01 0.01 0.01 0.01 0.02 0.02
0.05 0.05 0.06 0.06 0.05 0.04 0.03 0.05 0.06 0.08 0.09 0.09 0.06 0.05 0.05 0.05 0.05 0.04 0.04 0.04 0.03 0.03 0.03 0.02 0.02 0.03 0.03 0.02 0.03 0.03 0.03 0.02 0.02 0.01 0.01 0.01 0.01 0.01 0.01 0.01 0.01 0.01 0.01 0.02
0.04 0.04 0.04 0.05 0.07 0.08 0.05 0.05 0.05 0.05 0.05 0.06 0.06 0.04 0.03 0.03 0.03 0.03 0.03 0.03 0.03 0.03 0.02 0.01 0.02 0.02 0.03 0.03 0.02 0.03 0.03 0.03 0.02 0.02 0.02 0.02 0.02 0.02 0.01 0.01 0.01 0.01 0.01 0.02
0.03 0.03 0.03 0.04 0.08 0.10 0.07 0.05 0.05 0.04 0.03 0.04 0.05 0.03 0.03 0.03 0.03 0.02 0.02 0.02 0.02 0.02 0.02 0.01 0.02 0.02 0.02 0.02 0.02 0.02 0.02 0.02 0.01 0.01 0.02 0.02 0.02 0.02 0.02 0.01 0.01 0.01 0.01 0.02
0.03 0.03 0.02 0.03 0.05 0.05 0.04 0.05 0.05 0.03 0.03 0.03 0.03 0.03 0.04 0.04 0.04 0.03 0.03 0.03 0.02 0.02 0.01 0.01 0.02 0.02 0.01 0.02 0.02 0.02 0.01 0.02 0.02 0.02 0.02 0.03 0.02 0.02 0.02 0.02 0.01 0.01 0.01 0.01
0.03 0.03 0.03 0.03 0.03 0.03 0.03 0.04 0.05 0.04 0.04 0.04 0.03 0.03 0.03 0.03 0.03 0.04 0.04 0.03 0.03 0.02 0.02 0.02 0.02 0.01 0.01 0.02 0.01 0.01 0.01 0.01 0.01 0.02 0.02 0.04 0.04 0.03 0.02 0.02 0.02 0.02 0.02 0.02
MSLP
1016.15 1016.71 1017.29 1017.87 1018.42 1018.87 1019.18 1019.31 1019.23 1018.96 1018.51 1017.96 1017.37 1016.82 1016.38 1016.08 1015.95 1015.96 1016.08 1016.27 1016.46 1016.62 1016.72 1016.77 1016.78 1016.79 1016.84 1016.98 1017.22 1017.56 1018.00 1018.50 1019.03 1019.53 1019.99 1020.37 1020.67 1020.89 1021.04 1021.15 1021.25 1021.34 1021.44 1021.56
1016.33 1016.78 1017.17 1017.50 1017.77 1017.96 1018.04 1018.03 1017.91 1017.70 1017.43 1017.12 1016.81 1016.55 1016.36 1016.25 1016.22 1016.24 1016.31 1016.38 1016.43 1016.44 1016.42 1016.38 1016.35 1016.36 1016.45 1016.64 1016.95 1017.36 1017.85 1018.40 1018.97 1019.51 1019.99 1020.40 1020.73 1020.99 1021.18 1021.32 1021.44 1021.54 1021.64 1021.74
1016.57 1016.87 1017.07 1017.16 1017.16 1017.10 1016.99 1016.86 1016.71 1016.58 1016.46 1016.38 1016.34 1016.34 1016.38 1016.43 1016.50 1016.55 1016.57 1016.54 1016.46 1016.34 1016.21 1016.08 1015.99 1015.98 1016.08 1016.30 1016.63 1017.07 1017.59 1018.15 1018.72 1019.28 1019.78 1020.22 1020.59 1020.89 1021.13 1021.33 1021.49 1021.64 1021.76 1021.87
1016.83 1016.96 1016.95 1016.81 1016.58 1016.30 1016.03 1015.81 1015.65 1015.59 1015.61 1015.73 1015.91 1016.14 1016.38 1016.59 1016.75 1016.83 1016.82 1016.72 1016.55 1016.34 1016.11 1015.91 1015.77 1015.73 1015.80 1016.01 1016.33 1016.75 1017.24 1017.78 1018.33 1018.86 1019.36 1019.81 1020.22 1020.57 1020.88 1021.15 1021.39 1021.59 1021.76 1021.90
1017.01 1016.97 1016.76 1016.42 1015.99 1015.56 1015.17 1014.89 1014.73 1014.73 1014.89 1015.16 1015.54 1015.95 1016.35 1016.69 1016.93 1017.05 1017.05 1016.92 1016.70 1016.42 1016.14 1015.89 1015.71 1015.62 1015.66 1015.83 1016.10 1016.46 1016.89 1017.36 1017.85 1018.33 1018.81 1019.26 1019.69 1020.09 1020.47 1020.81 1021.12 1021.40 1021.63 1021.83
1017.01 1016.82 1016.44 1015.95 1015.39 1014.85 1014.40 1014.09 1013.97 1014.04 1014.29 1014.71 1015.22 1015.77 1016.30 1016.74 1017.06 1017.23 1017.24 1017.12 1016.89 1016.60 1016.30 1016.03 1015.82 1015.71 1015.71 1015.81 1016.01 1016.29 1016.62 1017.00 1017.40 1017.82 1018.24 1018.67 1019.11 1019.54 1019.97 1020.38 1020.77 1021.11 1021.41 1021.65
1016.77 1016.44 1015.96 1015.37 1014.76 1014.18 1013.73 1013.45 1013.38 1013.53 1013.88 1014.39 1015.00 1015.65 1016.27 1016.78 1017.16 1017.38 1017.44 1017.35 1017.15 1016.88 1016.59 1016.33 1016.12 1015.99 1015.95 1015.99 1016.11 1016.29 1016.52 1016.79 1017.09 1017.43 1017.79 1018.18 1018.60 1019.04 1019.50 1019.95 1020.38 1020.77 1021.11 1021.40
1016.24 1015.84 1015.31 1014.71 1014.11 1013.58 1013.19 1012.99 1013.00 1013.23 1013.67 1014.26 1014.94 1015.64 1016.30 1016.87 1017.29 1017.56 1017.66 1017.62 1017.47 1017.25 1017.01 1016.78 1016.59 1016.45 1016.38 1016.37 1016.41 1016.50 1016.63 1016.80 1017.00 1017.25 1017.53 1017.88 1018.26 1018.68 1019.13 1019.58 1020.02 1020.43 1020.78 1021.08
1015.46 1015.05 1014.54 1014.01 1013.50 1013.09 1012.82 1012.74 1012.86 1013.19 1013.70 1014.34 1015.05 1015.78 1016.46 1017.04 1017.48 1017.78 1017.92 1017.94 1017.85 1017.70 1017.51 1017.33 1017.17 1017.04 1016.96 1016.91 1016.90 1016.91 1016.96 1017.03 1017.15 1017.31 1017.52 1017.79 1018.12 1018.50 1018.91 1019.32 1019.73 1020.11 1020.45 1020.73
1014.54 1014.16 1013.75 1013.34 1012.99 1012.74 1012.64 1012.71 1012.97 1013.39 1013.96 1014.63 1015.36 1016.08 1016.74 1017.31 1017.75 1018.06 1018.24 1018.30 1018.27 1018.18 1018.07 1017.94 1017.82 1017.71 1017.62 1017.55 1017.50 1017.46 1017.45 1017.45 1017.49 1017.58 1017.73 1017.93 1018.19 1018.49 1018.83 1019.18 1019.53 1019.84 1020.12 1020.36
1013.60 1013.31 1013.03 1012.79 1012.62 1012.58 1012.66 1012.89 1013.28 1013.79 1014.41 1015.09 1015.80 1016.49 1017.12 1017.65 1018.08 1018.38 1018.58 1018.68 1018.70 1018.67 1018.61 1018.54 1018.46 1018.38 1018.30 1018.22 1018.15 1018.07 1018.01 1017.97 1017.96 1017.99 1018.07 1018.21 1018.40 1018.62 1018.87 1019.13 1019.39 1019.61 1019.81 1019.97
1012.78 1012.60 1012.47 1012.41 1012.44 1012.59 1012.85 1013.24 1013.73 1014.32 1014.96 1015.64 1016.32 1016.95 1017.53 1018.01 1018.40 1018.70 1018.90 1019.03 1019.09 1019.11 1019.11 1019.08 1019.03 1018.97 1018.91 1018.83 1018.74 1018.65 1018.56 1018.49 1018.44 1018.43 1018.47 1018.54 1018.66 1018.80 1018.97 1019.13 1019.28 1019.41 1019.51 1019.59
1012.17 1012.11 1012.12 1012.23 1012.44 1012.75 1013.17 1013.67 1014.24 1014.87 1015.52 1016.17 1016.80 1017.38 1017.89 1018.33 1018.68 1018.96 1019.16 1019.31 1019.41 1019.47 1019.50 1019.51 1019.49 1019.45 1019.39 1019.31 1019.22 1019.11 1019.01 1018.92 1018.85 1018.81 1018.81 1018.84 1018.90 1018.97 1019.06 1019.13 1019.19 1019.23 1019.24 1019.24
1011.84 1011.87 1012.00 1012.24 1012.58 1013.02 1013.54 1014.12 1014.74 1015.38 1016.01 1016.62 1017.19 1017.71 1018.16 1018.54 1018.86 1019.13 1019.34 1019.51 1019.63 1019.72 1019.79 1019.82 1019.82 1019.79 1019.73 1019.65 1019.54 1019.43 1019.32 1019.22 1019.13 1019.08 1019.05 1019.05 1019.07 1019.09 1019.11 1019.12 1019.10 1019.07 1019.01 1018.93
1011.76 1011.85 1012.07 1012.40 1012.83 1013.35 1013.92 1014.54 1015.16 1015.79 1016.39 1016.94 1017.45 1017.91 1018.30 1018.65 1018.95 1019.21 1019.43 1019.61 1019.76 1019.88 1019.96 1020.01 1020.02 1020.00 1019.93 1019.84 1019.72 1019.60 1019.47 1019.36 1019.27 1019.21 1019.17 1019.15 1019.14 1019.14 1019.12 1019.09 1019.03 1018.94 1018.83 1018.71
1011.88 1012.02 1012.29 1012.67 1013.15 1013.70 1014.29 1014.90 1015.51 1016.09 1016.64 1017.15 1017.60 1018.00 1018.36 1018.68 1018.97 1019.22 1019.45 1019.65 1019.82 1019.95 1020.05 1020.11 1020.12 1020.09 1020.02 1019.91 1019.78 1019.65 1019.51 1019.39 1019.29 1019.22 1019.18 1019.16 1019.14 1019.13 1019.10 1019.04 1018.96 1018.85 1018.72 1018.58
1012.13 1012.30 1012.60 1013.01 1013.50 1014.05 1014.64 1015.22 1015.80 1016.34 1016.84 1017.28 1017.69 1018.05 1018.38 1018.68 1018.95 1019.21 1019.44 1019.65 1019.84 1019.98 1020.09 1020.15 1020.16 1020.12 1020.03 1019.91 1019.77 1019.61 1019.47 1019.34 1019.23 1019.16 1019.12 1019.10 1019.09 1019.08 1019.06 1019.01 1018.93 1018.82 1018.68 1018.53
1012.43 1012.64 1012.96 1013.38 1013.87 1014.41 1014.97 1015.53 1016.07 1016.56 1017.02 1017.42 1017.79 1018.12 1018.42 1018.70 1018.96 1019.21 1019.45 1019.66 1019.85 1019.99 1020.10 1020.15 1020.15 1020.10 1020.00 1019.86 1019.71 1019.54 1019.39 1019.26 1019.15 1019.08 1019.04 1019.03 1019.03 1019.03 1019.02 1018.98 1018.92 1018.83 1018.70 1018.56
1012.76 1012.99 1013.34 1013.77 1014.26 1014.79 1015.33 1015.86 1016.36 1016.82 1017.24 1017.62 1017.95 1018.25 1018.53 1018.79 1019.04 1019.28 1019.49 1019.70 1019.87 1020.00 1020.09 1020.13 1020.12 1020.05 1019.95 1019.80 1019.64 1019.47 1019.30 1019.17 1019.07 1018.99 1018.96 1018.95 1018.96 1018.97 1018.98 1018.96 1018.92 1018.85 1018.74 1018.62
1013.09 1013.36 1013.72 1014.17 1014.66 1015.18 1015.71 1016.22 1016.70 1017.14 1017.53 1017.88 1018.19 1018.47 1018.72 1018.96 1019.18 1019.39 1019.58 1019.75 1019.90 1020.01 1020.07 1020.09 1020.06 1019.99 1019.87 1019.72 1019.56 1019.39 1019.23 1019.10 1018.99 1018.92 1018.89 1018.88 1018.89 1018.91 1018.92 1018.92 1018.90 1018.84 1018.77 1018.66
1013.43 1013.74 1014.14 1014.59 1015.09 1015.60 1016.11 1016.61 1017.07 1017.49 1017.86 1018.19 1018.48 1018.73 1018.96 1019.16 1019.34 1019.51 1019.67 1019.80 1019.91 1019.98 1020.02 1020.02 1019.98 1019.90 1019.78 1019.64 1019.48 1019.32 1019.17 1019.04 1018.93 1018.86 1018.82 1018.80 1018.80 1018.82 1018.83 1018.83 1018.82 1018.78 1018.72 1018.64
1013.82 1014.16 1014.56 1015.02 1015.51 1016.01 1016.51 1016.98 1017.42 1017.83 1018.18 1018.49 1018.76 1018.98 1019.18 1019.34 1019.49 1019.61 1019.72 1019.81 1019.87 1019.91 1019.93 1019.91 1019.86 1019.78 1019.66 1019.53 1019.39 1019.24 1019.10 1018.97 1018.87 1018.78 1018.73 1018.70 1018.69 1018.68 1018.68 1018.68 1018.67 1018.64 1018.59 1018.53
1014.25 1014.60 1015.01 1015.45 1015.91 1016.39 1016.85 1017.30 1017.71 1018.09 1018.42 1018.71 1018.95 1019.15 1019.31 1019.44 1019.55 1019.63 1019.70 1019.74 1019.78 1019.79 1019.78 1019.75 1019.70 1019.62 1019.53 1019.41 1019.29 1019.15 1019.02 1018.90 1018.78 1018.69 1018.62 1018.56 1018.52 1018.50 1018.48 1018.46 1018.43 1018.40 1018.36 1018.31
1014.72 1015.06 1015.43 1015.84 1016.26 1016.68 1017.10 1017.50 1017.87 1018.21 1018.52 1018.77 1018.99 1019.16 1019.30 1019.41 1019.48 1019.54 1019.58 1019.60 1019.61 1019.61 1019.59 1019.57 1019.52 1019.46 1019.38 1019.28 1019.17 1019.04 1018.92 1018.79 1018.67 1018.56 1018.46 1018.38 1018.31 1018.25 1018.21 1018.16 1018.12 1018.09 1018.04 1018.00
1015.19 1015.49 1015.81 1016.15 1016.50 1016.86 1017.21 1017.55 1017.87 1018.17 1018.43 1018.66 1018.85 1019.01 1019.13 1019.22 1019.29 1019.34 1019.37 1019.38 1019.39 1019.39 1019.38 1019.36 1019.32 1019.27 1019.21 1019.13 1019.03 1018.91 1018.79 1018.66 1018.52 1018.39 1018.26 1018.15 1018.05 1017.96 1017.89 1017.82 1017.77 1017.71 1017.67 1017.62
1015.59 1015.83 1016.09 1016.35 1016.62 1016.90 1017.17 1017.44 1017.70 1017.95 1018.17 1018.38 1018.55 1018.70 1018.82 1018.91 1018.98 1019.04 1019.08 1019.11 1019.13 1019.14 1019.15 1019.14 1019.12 1019.09 1019.03 1018.96 1018.86 1018.75 1018.61 1018.47 1018.32 1018.16 1018.01 1017.87 1017.74 1017.63 1017.53 1017.45 1017.38 1017.32 1017.27 1017.22
1015.86 1016.04 1016.22 1016.40 1016.59 1016.78 1016.98 1017.18 1017.38 1017.58 1017.77 1017.95 1018.11 1018.26 1018.39 1018.50 1018.60 1018.68 1018.74 1018.80 1018.85 1018.88 1018.91 1018.91 1018.91 1018.88 1018.83 1018.75 1018.65 1018.53 1018.38 1018.22 1018.04 1017.87 1017.70 1017.54 1017.40 1017.27 1017.16 1017.07 1017.00 1016.93 1016.88 1016.83
Thickness
5751 5761 5765 5768 5765 5761 5762 5755 5750 5759 5765 5783 5794 5800 5804 5806 5805 5804 5803 5801 5799 5796 5794 5791 5787 5784 5781 5776 5772 5768 5763 5758 5753 5749 5745 5741 5736 5733 5730 5727 5724 5721 5719 5716
5745 5756 5761 5762 5766 5763 5766 5763 5765 5770 5772 5791 5796 5798 5800 5801 5802 5800 5800 5800 5798 5796 5793 5790 5787 5783 5779 5775 5771 5767 5762 5757 5752 5748 5742 5738 5733 5729 5725 5722 5719 5717 5714 5711
5724 5743 5751 5742 5758 5761 5765 5768 5769 5766 5778 5789 5790 5793 5797 5799 5801 5801 5801 5800 5798 5796 5794 5791 5788 5784 5778 5774 5769 5765 5760 5755 5750 5745 5740 5735 5731 5726 5721 5717 5714 5711 5709 5706
5712 5727 5717 5743 5768 5771 5769 5771 5775 5780 5785 5788 5792 5796 5799 5801 5801 5801 5801 5800 5798 5796 5793 5791 5787 5782 5777 5771 5766 5761 5756 5751 5747 5742 5737 5732 5727 5722 5717 5714 5711 5707 5704 5701
5698 5705 5720 5746 5763 5766 5762 5764 5776 5778 5782 5785 5789 5791 5792 5800 5802 5802 5803 5802 5800 5797 5793 5789 5784 5780 5774 5768 5764 5759 5754 5750 5745 5739 5734 5729 5724 5718 5714 5710 5706 5702 5699 5696
5695 5701 5704 5736 5764 5773 5768 5754 5775 5777 5778 5779 5781 5771 5783 5800 5801 5800 5800 5798 5796 5794 5789 5785 5781 5777 5771 5765 5760 5755 5752 5747 5742 5736 5731 5726 5721 5716 5711 5707 5702 5698 5694 5690
5693 5699 5711 5742 5758 5765 5742 5749 5774 5776 5777 5777 5777 5784 5794 5798 5797 5797 5796 5794 5792 5788 5785 5782 5778 5773 5766 5761 5756 5753 5748 5743 5737 5732 5728 5723 5718 5713 5708 5703 5698 5693 5689 5686
5684 5692 5706 5744 5749 5746 5748 5764 5770 5773 5775 5776 5779 5785 5789 5791 5791 5791 5790 5788 5786 5783 5779 5776 5773 5769 5762 5757 5754 5749 5743 5736 5731 5727 5724 5719 5713 5708 5703 5699 5693 5689 5685 5681
5694 5701 5721 5733 5740 5748 5753 5757 5764 5767 5772 5773 5773 5777 5781 5782 5783 5783 5783 5782 5780 5777 5773 5769 5767 5764 5757 5753 5748 5743 5736 5730 5725 5721 5717 5714 5709 5703 5698 5694 5690 5685 5681 5677
5693 5707 5718 5727 5735 5742 5748 5752 5759 5764 5767 5769 5769 5772 5773 5774 5775 5775 5776 5775 5773 5770 5766 5762 5760 5757 5754 5749 5744 5738 5731 5725 5720 5715 5710 5706 5703 5699 5694 5690 5685 5681 5677 5673
5687 5700 5710 5721 5727 5733 5741 5747 5752 5758 5762 5764 5765 5765 5766 5766 5767 5768 5768 5767 5766 5763 5760 5756 5753 5750 5747 5743 5738 5732 5726 5720 5715 5711 5706 5701 5696 5692 5690 5686 5683 5678 5674 5670
5681 5694 5698 5707 5719 5726 5731 5737 5742 5747 5751 5756 5757 5757 5758 5758 5760 5760 5759 5758 5756 5754 5752 5748 5745 5742 5739 5736 5732 5726 5719 5714 5709 5705 5700 5695 5690 5685 5682 5680 5676 5673 5669 5666
5683 5691 5695 5704 5711 5718 5723 5730 5735 5739 5742 5745 5747 5749 5749 5749 5750 5750 5750 5749 5748 5746 5744 5741 5737 5734 5731 5728 5725 5720 5715 5710 5704 5700 5696 5691 5687 5683 5677 5673 5670 5666 5663 5660
5679 5684 5688 5696 5702 5710 5716 5722 5727 5731 5734 5737 5738 5738 5739 5739 5739 5739 5740 5740 5740 5737 5735 5732 5729 5726 5724 5721 5717 5713 5708 5704 5700 5695 5691 5687 5684 5679 5674 5670 5666 5661 5657 5654
5672 5678 5683 5690 5696 5702 5707 5711 5714 5718 5721 5723 5727 5727 5727 5728 5729 5729 5730 5731 5730 5727 5725 5724 5721 5718 5716 5713 5710 5706 5702 5698 5694 5689 5685 5680 5676 5672 5668 5664 5661 5656 5651 5647
5666 5672 5677 5682 5687 5692 5696 5700 5702 5706 5710 5712 5715 5716 5717 5718 5718 5719 5720 5720 5719 5717 5716 5715 5713 5712 5709 5706 5702 5699 5696 5692 5688 5683 5679 5673 5668 5665 5661 5658 5654 5651 5647 5643
5657 5661 5667 5672 5678 5683 5687 5690 5694 5698 5701 5703 5704 5706 5707 5708 5707 5707 5708 5710 5710 5708 5707 5706 5705 5704 5701 5698 5696 5693 5689 5685 5681 5676 5671 5667 5662 5659 5655 5652 5649 5645 5642 5637
5654 5660 5665 5669 5672 5675 5679 5683 5686 5689 5691 5693 5695 5695 5695 5696 5696 5696 5696 5697 5698 5696 5696 5697 5696 5696 5694 5691 5689 5686 5682 5678 5674 5669 5665 5660 5657 5653 5649 5646 5642 5638 5634 5630
5651 5655 5660 5664 5667 5669 5672 5675 5678 5679 5680 5683 5684 5684 5685 5685 5686 5688 5686 5685 5685 5684 5686 5687 5686 5685 5685 5683 5681 5677 5674 5670 5666 5661 5657 5652 5649 5646 5642 5639 5635 5631 5627 5623
5647 5652 5656 5658 5661 5662 5664 5667 5670 5670 5670 5672 5674 5674 5673 5675 5676 5677 5675 5674 5674 5676 5678 5678 5677 5677 5677 5675 5672 5669 5666 5663 5659 5654 5650 5646 5642 5639 5635 5632 5628 5624 5620 5616
5641 5646 5650 5652 5654 5656 5657 5659 5660 5660 5660 5662 5664 5664 5664 5666 5667 5666 5665 5664 5665 5667 5668 5669 5669 5669 5668 5666 5663 5661 5658 5655 5651 5647 5643 5639 5636 5633 5629 5625 5621 5618 5614 5610
5635 5639 5642 5644 5646 5647 5648 5650 5651 5652 5652 5653 5655 5656 5657 5657 5657 5656 5657 5657 5658 5659 5660 5660 5660 5660 5659 5657 5655 5653 5651 5647 5643 5639 5636 5632 5629 5625 5622 5618 5614 5611 5607 5602
5627 5631 5634 5636 5637 5639 5640 5642 5644 5644 5644 5645 5646 5648 5649 5648 5648 5648 5648 5650 5652 5652 5652 5652 5652 5650 5649 5648 5647 5645 5642 5639 5635 5632 5628 5625 5621 5618 5615 5611 5607 5603 5599 5595
5620 5623 5625 5627 5629 5630 5630 5632 5634 5635 5636 5637 5638 5639 5640 5640 5640 5642 5643 5644 5644 5644 5644 5643 5642 5641 5639 5639 5637 5635 5633 5630 5628 5625 5621 5618 5614 5611 5607 5604 5600 5596 5592 5588
5613 5615 5617 5619 5621 5622 5623 5624 5624 5625 5627 5628 5629 5631 5632 5633 5634 5634 5635 5635 5635 5636 5635 5634 5632 5631 5630 5630 5628 5626 5624 5622 5619 5617 5614 5611 5607 5604 5600 5597 5593 5588 5584 5580
5606 5608 5611 5613 5614 5615 5616 5617 5617 5618 5619 5619 5620 5621 5623 5624 5625 5625 5626 5626 5627 5627 5626 5625 5624 5623 5622 5621 5619 5618 5616 5614 5611 5609 5607 5603 5600 5596 5592 5588 5585 5581 5577 5574
5600 5602 5604 5605 5607 5608 5609 5610 5611 5612 5612 5613 5613 5614 5615 5616 5616 5617 5617 5618 5618 5617 5617 5616 5615 5614 5613 5612 5611 5609 5607 5605 5603 5601 5598 5595 5591 5588 5584 5580 5577 5573 5570 5566